Weather observations for the past three days for
Viroqua Municipal Airport
Metric (Imperial)
Date Time (cdt) Wind (kph) Vis. (km) Weather Sky Cond. Temperature (ºC) Relative Humidity Wind Chill (°C) Heat Index (°C) Pressure Precipitation (cm)
Air Dwpt 6 hour altimeter (cm) sea level (mb) 1 hr 3 hr 6 hr
Max. Min.
10 09:55 NW 20 G 31 16.09 Partly Cloudy SCT100 12.4 -3.7 33% 76.45 0.0
10 09:35 W 15 16.09 Fair CLR 11.7 -3.8 34% 76.43 0.0
10 09:15 NW 13 16.09 Fair CLR 11 -2.8 38% 76.43 0.0
10 08:55 W 11 16.09 Fair CLR 10.2 -3.2 39% 76.43 0.0
10 08:35 W 9 16.09 Partly Cloudy SCT095 9.4 -1.7 46% 8 76.4 0.0
10 08:15 W 7 16.09 Partly Cloudy SCT095 8.1 -1.2 52% 7 76.4 0.0
10 08:00 W 7 16.09 Fair CLR 7.5 -0.6 57% 6 76.4 0.0
10 07:35 W 6 16.09 Fair CLR 6.8 -1.3 57% 76.38 0.0
10 07:15 W 7 16.09 Fair CLR 5.4 -1.4 62% 4 76.38 0.0
10 06:55 Calm 16.09 Fair CLR 4.1 -1.5 8 3.1 67% 76.35 0.0
10 06:35 W 9 16.09 Fair CLR 3.8 -3.2 61% 2 76.35 0.0
10 05:55 W 9 16.09 Fair CLR 5 -3.8 53% 3 76.33 0.0
10 05:35 W 7 16.09 Fair CLR 4.9 -3.7 54% 3 76.3 0.0
10 05:15 Calm 16.09 Fair CLR 4.6 -3.5 56% 76.3 0.0
10 04:55 W 6 16.09 Partly Cloudy SCT080 4.5 -3.6 56% 76.28 0.0
10 04:35 Calm 16.09 Partly Cloudy SCT080 4.9 -4 53% 76.25 0.0
10 04:15 Calm 16.09 Partly Cloudy SCT080 5.5 -4 51% 76.23 0.0
10 03:55 Calm 16.09 Fair CLR 5.5 -4 51% 76.2 0.0
10 03:35 Calm 16.09 Partly Cloudy SCT080 5.2 -3.8 53% 76.2 0.0
10 03:15 W 6 16.09 Mostly Cloudy BKN080 5.5 -4 51% 76.17 0.0
10 02:55 NW 9 16.09 Mostly Cloudy BKN080 6.4 -4.4 46% 5 76.17 0.0
10 02:35 NW 9 16.09 Fair CLR 4.6 -3.9 54% 3 76.15 0.0
10 02:15 NW 9 16.09 Partly Cloudy SCT080 6.9 -5 43% 5 76.15 0.0
10 01:55 NW 9 16.09 Partly Cloudy SCT080 7.5 -5.5 40% 6 76.12 0.0
10 01:35 NW 7 16.09 Partly Cloudy SCT080 8 -5.5 38% 7 76.1 0.0
10 01:15 W 7 16.09 Partly Cloudy SCT080 7.7 -5.2 40% 7 76.1 0.0
10 00:55 NW 7 16.09 Fair CLR 7.7 -5.2 14.5 6.2 40% 7 76.07 0.0
10 00:35 NW 6 16.09 Fair CLR 6.4 -4.5 46% 76.07 0.0
10 00:15 NW 7 16.09 Fair CLR 6.6 -4.3 46% 5 76.07 0.0
09 23:55 N 9 16.09 Fair CLR 7.1 -4.5 44% 6 76.05 0.0
09 23:35 N 11 16.09 Fair CLR 7.8 -5.1 40% 6 76.05 0.0
09 23:15 N 11 16.09 Fair CLR 7.9 -5.1 40% 6 76.02 0.0
09 22:55 N 9 16.09 Fair CLR 7.6 -4.8 41% 6 76.02 0.0
09 22:35 NW 9 16.09 Fair CLR 7.5 -4.5 43% 6 76.02 0.0
09 22:15 NW 13 16.09 Fair CLR 8.4 -5.7 37% 7 76 0.0
09 21:55 NW 9 16.09 Fair CLR 8.3 -6.2 36% 7 75.97 0.0
09 21:35 NW 9 16.09 Fair CLR 8.8 -5.5 36% 8 75.92 0.0
09 21:15 NW 13 16.09 Fair CLR 10 -6.5 31% 8 75.9 0.0
09 20:55 NW 15 16.09 Fair CLR 10.8 -7 28% 75.84 0.0
09 20:35 NW 19 16.09 Fair CLR 11.3 -6.7 28% 75.84 0.0
09 20:15 NW 19 16.09 Fair CLR 11.6 -6.1 29% 75.79 0.0
09 19:55 NW 19 16.09 Fair CLR 12.6 -6.5 26% 75.77 0.0
09 19:35 NW 24 G 31 16.09 Fair CLR 13.2 -6.5 25% 75.74 0.0
09 19:15 NW 24 G 33 16.09 Fair CLR 14 -6.4 24% 75.74 0.0
09 18:55 NW 24 16.09 Fair CLR 14.5 -6.1 16.4 14.1 24% 75.72 0.0
09 18:35 NW 28 16.09 Fair CLR 14.8 -6.4 23% 75.69 0.0
09 18:20 NW 24 G 37 16.09 Fair CLR 15 -6.1 23% 75.69 0.0
09 17:55 NW 24 G 31 16.09 Fair CLR 15.7 -3.7 26% 75.64 0.0
09 17:35 NW 20 16.09 Fair CLR 15.9 -3.2 27% 75.62 0.0
09 17:15 NW 28 G 39 16.09 Fair CLR 15.7 -2.7 28% 75.59 0.0
09 16:55 NW 22 G 37 16.09 Partly Cloudy SCT070 15.9 -2.5 28% 75.59 0.0
09 16:35 NW 26 G 35 16.09 Fair CLR 16.1 -1.5 30% 75.57 0.0
09 16:15 NW 30 G 39 16.09 Fair CLR 15.8 -1.9 30% 75.57 0.0
09 15:55 N 31 G 43 16.09 Fair CLR 15.6 -2.5 29% 75.57 0.0
09 15:35 NW 31 G 41 16.09 Partly Cloudy SCT065 16.3 -1.1 31% 75.54 0.0
09 15:15 NW 33 G 44 16.09 Fair and Breezy CLR 15.7 -1.5 31% 75.54 0.0
09 14:55 NW 35 G 50 16.09 Fair and Breezy CLR 16 -0.8 32% 75.51 0.0
09 14:35 NW 24 G 46 16.09 Partly Cloudy SCT060 15.8 0.1 35% 75.49 0.0
09 14:15 NW 31 G 43 16.09 Partly Cloudy SCT060 16.2 1 36% 75.46 0.0
09 13:55 NW 24 G 37 16.09 Mostly Cloudy BKN050 15.9 0.9 36% 75.46 0.0
09 13:35 NW 26 G 48 16.09 Mostly Cloudy BKN050 15.4 1.6 39% 75.46 0.0
09 13:15 NW 30 G 35 16.09 Mostly Cloudy BKN050 15.5 2.3 41% 75.46 0.0
09 12:55 NW 31 G 41 16.09 Mostly Cloudy BKN048 BKN055 14.5 2.5 15.1 9.3 45% 75.46 0.0
09 12:35 NW 31 G 43 16.09 Mostly Cloudy BKN048 BKN050 15.1 2.8 44% 75.46 0.0
09 12:15 NW 31 G 43 16.09 Mostly Cloudy BKN046 BKN050 14.4 2.5 45% 75.44 0.0
09 11:55 NW 35 G 44 16.09 Mostly Cloudy and Breezy SCT042 BKN048 BKN050 14.8 3.3 46% 75.41 0.0
09 11:35 NW 31 G 43 16.09 Mostly Cloudy BKN044 BKN050 14.9 4.3 49% 75.41 0.0
09 11:15 NW 30 G 37 16.09 Partly Cloudy SCT046 15.1 4.1 48% 75.36 0.0
09 10:55 NW 35 G 41 16.09 Partly Cloudy and Breezy SCT036 SCT046 14.7 3.9 49% 75.36 0.0
09 10:35 NW 22 G 37 16.09 Partly Cloudy SCT036 14.6 3.3 47% 75.34 0.0
09 10:15 W 20 G 28 16.09 Partly Cloudy SCT055 SCT100 14.3 0.5 39% 75.31 0.0
09 09:55 W 19 16.09 Mostly Cloudy BKN060 BKN065 BKN095 13.7 1.3 43% 75.31 0.0
09 09:35 SW 13 16.09 Overcast BKN060 BKN080 OVC090 12.3 1.4 48% 75.31 0.0
09 09:15 SW 15 16.09 Overcast SCT035 SCT049 OVC090 11.6 0.1 45% 75.31 0.0
09 08:55 W 6 16.09 Overcast SCT033 BKN065 OVC070 11.5 0.6 47% 75.34 0.0
09 08:35 W 6 16.09 Mostly Cloudy SCT065 BKN075 11.7 0.1 45% 75.29 0.0
09 08:15 W 17 16.09 Partly Cloudy SCT075 11.3 0.4 47% 75.36 0.0
09 07:55 W 13 16.09 Partly Cloudy SCT090 10.9 1.2 51% 75.34 0.0
09 07:35 NW 11 16.09 Partly Cloudy SCT090 9.7 1.7 58% 8 75.29 0.0
09 07:15 SW 9 16.09 Fair CLR 9.7 0 51% 9 75.21 0.0
09 06:55 SW 9 16.09 Fair CLR 9 -0.3 13.7 8.3 52% 8 75.18 0.0
09 06:35 SW 9 16.09 Fair CLR 9 -1.5 48% 8 75.16 0.0
09 06:15 SW 9 16.09 Fair CLR 8.9 -1.3 49% 8 75.16 0.0
09 05:55 SW 7 16.09 Fair CLR 9.9 -2.1 43% 9 75.16 0.0
09 05:35 SW 7 16.09 Fair CLR 9.1 -1.7 47% 8 75.18 0.0
09 05:15 Calm 16.09 Fair CLR 9.5 -2 45% 75.16 0.0
09 04:55 W 6 16.09 Fair CLR 9.8 -1.9 44% 75.18 0.0
09 04:35 W 9 16.09 Fair CLR 10.3 -1.8 43% 75.18 0.0
09 04:15 W 9 16.09 Fair CLR 10.3 -1.5 44% 75.18 0.0
09 03:55 W 7 16.09 Fair CLR 10 -1.1 46% 9 75.18 0.0
09 03:35 NW 9 16.09 Fair CLR 10 -0.6 48% 9 75.18 0.0
09 03:15 NW 9 16.09 Fair CLR 10.5 -0.4 47% 75.16 0.0
09 02:55 NW 7 16.09 Fair CLR 11.2 -0.5 45% 75.16 0.0
09 02:35 NW 9 16.09 Fair CLR 11.7 -0.4 44% 75.16 0.0
09 02:15 W 13 16.09 Fair CLR 12.1 -0.1 43% 75.18 0.0
09 01:55 W 13 16.09 Fair CLR 12.4 0 43% 75.18 0.0
09 01:35 W 15 16.09 Partly Cloudy SCT100 12.8 0 42% 75.16 0.0
09 01:15 W 17 16.09 Mostly Cloudy BKN100 13.7 -0.2 39% 75.16 0.0
09 00:55 W 15 16.09 Mostly Cloudy BKN100 13.5 0 20.2 13.3 40% 75.16 0.0
09 00:35 W 15 16.09 Mostly Cloudy BKN110 13.5 0 40% 75.16 0.0
09 00:20 W 15 16.09 Overcast OVC110 13.5 -0.1 40% 75.16 0.0
08 23:55 W 13 16.09 Mostly Cloudy BKN110 13.5 -1 37% 75.16 0.0
08 23:35 SW 11 16.09 Partly Cloudy SCT110 14 -1.5 35% 75.16 0.0
08 23:15 SW 9 16.09 Partly Cloudy SCT100 13.9 -1.3 35% 75.16 0.0
08 22:55 SW 13 16.09 Mostly Cloudy BKN110 14.7 -2.1 32% 75.16 0.0
08 22:35 SW 9 16.09 Overcast OVC110 15.1 -2.5 30% 75.18 0.0
08 22:15 S 9 16.09 Overcast OVC110 15.9 -2.9 28% 75.18 0.0
08 21:55 S 11 16.09 Overcast SCT100 OVC120 15.5 -2.7 29% 75.21 0.0
08 21:35 SW 9 16.09 Overcast BKN100 OVC120 15.8 -2 30% 75.21 0.0
08 21:15 S 7 16.09 Mostly Cloudy BKN110 16.5 -3.5 25% 75.21 0.0
08 20:55 S 7 16.09 Mostly Cloudy BKN110 16.5 -3.6 25% 75.21 0.0
08 20:35 SW 6 16.09 Partly Cloudy SCT110 16.7 -3.8 24% 75.18 0.0
08 20:15 SW 9 16.09 Fair CLR 17.2 -3.1 25% 75.18 0.0
08 19:55 W 11 16.09 Fair CLR 17.8 -3.3 24% 75.21 0.0
08 19:35 W 15 16.09 Partly Cloudy SCT110 19 -3.7 21% 75.18 0.0
08 19:15 W 11 16.09 Partly Cloudy SCT110 20 -3.9 20% 75.21 0.0
08 18:55 W 15 16.09 Partly Cloudy SCT110 20 -4.1 21 18.1 19% 75.21 0.0
08 18:35 W 15 16.09 Partly Cloudy SCT110 19.5 -4.6 19% 75.23 0.0
08 18:15 W 17 16.09 Partly Cloudy SCT110 19.8 -4.9 18% 75.23 0.0
08 17:55 SW 17 G 26 16.09 Fair CLR 19.7 -5.4 18% 75.26 0.0
08 17:35 W 20 G 28 16.09 Partly Cloudy SCT110 20.5 -5.3 17% 75.26 0.0
08 17:15 SW 17 G 33 16.09 Partly Cloudy SCT100 20.8 -6.1 16% 75.26 0.0
08 16:55 W 24 G 33 4.83 Partly Cloudy SCT100 20.7 -5.4 17% 75.29 0.0
08 16:35 SW 22 G 37 11.27 Fair CLR 20.8 -6.1 16% 75.31 0.0
08 16:15 W 33 8.05 Fair and Breezy CLR 20.7 -5.7 16% 75.34 0.0
08 15:55 W 17 G 30 16.09 Partly Cloudy SCT095 20.6 -6 16% 75.34 0.0
08 15:35 SW 26 G 37 16.09 Partly Cloudy SCT095 20.4 -6.4 16% 75.39 0.0
08 15:15 SW 24 G 39 16.09 Partly Cloudy SCT095 20 -6.3 16% 75.41 0.0
08 14:55 W 20 G 33 16.09 Partly Cloudy SCT095 19.5 -6.1 17% 75.44 0.0
08 14:35 W 13 G 30 16.09 Mostly Cloudy BKN095 19.2 -5.4 18% 75.46 0.0
08 14:15 W 15 G 31 16.09 Partly Cloudy SCT095 18.8 -6.1 18% 75.46 0.0
08 14:00 SW 26 16.09 Partly Cloudy SCT095 18.9 -6.6 17% 75.49 0.0
08 13:35 W 26 G 39 16.09 Partly Cloudy SCT090 19.2 -4.3 20% 75.51 0.0
08 13:15 SW 15 16.09 Partly Cloudy SCT090 18.3 -6.5 18% 75.54 0.0
08 12:55 SW 19 G 30 16.09 Fair CLR 18 -4.9 18.1 6 21% 75.57 0.0
08 12:35 SW 13 G 30 16.09 Fair CLR 18.1 -5.1 20% 75.59 0.0
08 12:15 SW 17 G 30 16.09 Fair CLR 17.4 -3.9 23% 75.62 0.0
08 11:55 W 22 G 30 16.09 Fair CLR 17.1 -4.1 23% 75.64 0.0
08 11:35 SW 15 16.09 Fair CLR 16 -4.2 25% 75.64 0.0
08 11:15 SW 20 G 28 16.09 Fair CLR 16.2 -4.5 24% 75.67 0.0
08 10:55 SW 17 16.09 Fair CLR 15.8 -4.3 25% 75.69 0.0
08 10:35 SW 24 G 30 16.09 Fair CLR 15.5 -4.5 25% 75.72 0.0
08 10:15 SW 22 16.09 Fair CLR 14.9 -4.9 25% 75.72 0.0
08 10:00 SW 20 G 26 16.09 Fair CLR 14.5 -4.3 27% 75.72 0.0
08 09:35 S 20 16.09 Fair CLR 13.5 -4.4 29% 75.72 0.0
08 09:15 SW 24 16.09 Fair CLR 12.7 -4.8 29% 75.72 0.0
08 08:55 S 19 16.09 Fair CLR 11.8 -4.8 31% 75.72 0.0
08 08:35 SW 11 16.09 Fair CLR 11.1 -4 35% 75.72 0.0
08 08:15 S 11 16.09 Fair CLR 10 -4.4 36% 9 75.74 0.0
08 07:55 S 17 16.09 Fair CLR 9 -4.9 37% 7 75.74 0.0
08 07:35 S 13 16.09 Fair CLR 7.9 -4.9 40% 6 75.72 0.0
08 07:15 S 11 16.09 Fair CLR 6.7 -5.1 43% 5 75.72 0.0
08 06:55 S 11 16.09 Fair CLR 6 -5.5 7 5.1 44% 4 75.72 0.0
08 06:35 S 15 16.09 Fair CLR 5.9 -5.7 43% 3 75.72 0.0
08 06:15 S 11 16.09 Fair CLR 5.3 -5.9 45% 3 75.72 0.0
08 05:55 S 7 16.09 Fair CLR 5.2 -6.2 44% 4 75.72 0.0
08 05:35 S 9 16.09 Fair CLR 5.5 -6.3 43% 4 75.72 0.0
08 05:15 S 9 16.09 Fair CLR 5.2 -6.1 44% 3 75.72 0.0
08 04:55 S 11 16.09 Fair CLR 5.2 -6 45% 3 75.72 0.0
08 04:35 S 13 16.09 Fair CLR 5.4 -6.1 44% 3 75.74 0.0
08 04:15 S 9 16.09 Fair CLR 5.5 -6.2 43% 4 75.74 0.0
08 03:55 S 15 16.09 Fair CLR 5.9 -6.6 41% 3 75.77 0.0
08 03:35 S 9 16.09 Fair CLR 5.6 -6.7 41% 4 75.77 0.0
08 03:15 S 13 16.09 Fair CLR 5.7 -6.6 41% 3 75.77 0.0
08 02:55 S 11 16.09 Fair CLR 5.6 -6.5 42% 3 75.77 0.0
08 02:35 S 11 16.09 Fair CLR 5.3 -6.6 42% 3 75.77 0.0
08 02:15 S 9 16.09 Fair CLR 5.4 -6.6 42% 4 75.77 0.0
08 01:55 S 9 16.09 Fair CLR 5.6 -6.9 41% 4 75.79 0.0
08 01:35 S 11 16.09 Fair CLR 5.5 -7 40% 3 75.82 0.0
08 01:15 S 9 16.09 Fair CLR 6 -7.3 38% 4 75.82 0.0
08 00:55 SE 11 16.09 Fair CLR 6.4 -8.4 12.5 6.3 34% 4 75.84 0.0
08 00:35 SE 11 16.09 Fair CLR 6.7 -8.4 33% 5 75.84 0.0
08 00:15 SE 9 16.09 Fair CLR 6.7 -8 35% 5 75.84 0.0
07 23:55 SE 9 16.09 Fair CLR 6.5 -8.4 34% 5 75.84 0.0
07 23:35 E 7 16.09 Fair CLR 7.2 -8.5 32% 6 75.84 0.0
07 23:15 E 6 16.09 Fair CLR 7.3 -8.5 32% 75.84 0.0
07 22:55 Calm 16.09 Fair CLR 7.6 -8.9 30% 75.84 0.0
07 22:35 NE 6 16.09 Fair CLR 7.5 -8.2 32% 75.84 0.0
07 22:15 NE 6 16.09 Fair CLR 8 -8.2 31% 75.84 0.0
07 21:55 NE 6 16.09 Fair CLR 7.8 -7.6 33% 75.84 0.0
07 21:35 Calm 16.09 Fair CLR 7.5 -6.9 36% 75.82 0.0
07 21:15 N 9 16.09 Fair CLR 7.5 -6.7 36% 6 75.82 0.0
07 20:55 N 9 16.09 Fair CLR 8.8 -7 32% 8 75.79 0.0
07 20:35 N 7 16.09 Fair CLR 9.3 -7.5 30% 9 75.77 0.0
07 20:15 N 9 16.09 Fair CLR 9.4 -6.1 33% 8 75.77 0.0
07 19:55 N 9 16.09 Fair CLR 10.5 -6.7 29% 75.77 0.0
07 19:35 N 11 16.09 Fair CLR 11.4 -6.5 28% 75.74 0.0
07 19:15 NW 13 16.09 Fair CLR 11.9 -6.6 27% 75.74 0.0
07 18:55 NW 15 16.09 Fair CLR 12.5 -5.8 14 11.1 28% 75.72 0.0
07 18:35 NW 15 16.09 Fair CLR 12.8 -6.6 25% 75.72 0.0
07 18:15 NW 19 16.09 Fair CLR 13.2 -7.6 23% 75.72 0.0
07 17:55 NW 24 16.09 Fair CLR 13.3 -7.1 24% 75.72 0.0
07 17:35 W 19 G 31 16.09 Fair CLR 13.5 -6.9 24% 75.74 0.0
07 17:15 W 15 G 41 16.09 Fair CLR 13.5 -7.1 23% 75.74 0.0
07 16:55 NW 24 G 31 16.09 Fair CLR 13.6 -6.5 24% 75.72 0.0
07 16:35 NW 15 G 33 16.09 Fair CLR 13.7 -6.1 25% 75.72 0.0
07 16:15 NW 20 G 37 16.09 Partly Cloudy SCT075 13.8 -5.2 27% 75.72 0.0
07 15:55 W 17 G 31 16.09 Fair CLR 13.6 -5.1 27% 75.74 0.0
07 15:35 NW 17 G 37 16.09 Fair CLR 13.7 -4.7 28% 75.74 0.0
07 15:15 NW 19 G 31 16.09 Partly Cloudy SCT065 12.6 -4.8 30% 75.77 0.0
07 15:00 NW 22 G 35 16.09 Partly Cloudy SCT065 12.3 -3.9 32% 75.77 0.0
07 14:35 NW 20 G 31 16.09 Mostly Cloudy BKN065 12.1 -3.9 33% 75.79 0.0
07 14:15 NW 22 G 33 16.09 Mostly Cloudy BKN065 12.3 -2.6 36% 75.79 0.0
07 14:00 NW 20 G 31 16.09 Partly Cloudy SCT065 SCT075 12.8 -2.9 34% 75.79 0.0
07 13:35 NW 17 16.09 Partly Cloudy SCT055 11.4 -2.7 38% 75.79 0.0
07 13:15 NW 11 16.09 Partly Cloudy SCT055 11.3 -2.5 38% 75.82 0.0
07 12:55 NW 15 16.09 Partly Cloudy SCT055 11.3 -2.3 11.3 2.5 39% 75.84 0.0
07 12:35 Calm 16.09 Fair CLR 10.4 -3.3 38% 75.84 0.0
07 12:15 NW 11 16.09 Partly Cloudy SCT080 10.1 -3 40% 75.87 0.0
07 11:55 NE 6 16.09 Partly Cloudy SCT080 9.5 -2.9 42% 75.9 0.0
07 11:35 SE 6 16.09 Partly Cloudy SCT085 9.9 -2.7 41% 75.9 0.0
07 11:15 N 15 16.09 Partly Cloudy SCT085 9.2 -2.4 44% 7 75.9 0.0
07 10:55 NE 9 16.09 Partly Cloudy SCT060 8.9 -3.4 42% 8 75.9 0.0
07 10:35 N 11 16.09 Partly Cloudy SCT060 8.7 -2.9 44% 7 75.92 0.0
07 10:15 Calm 16.09 Fair CLR 9.3 -3.7 40% 75.92 0.0
Date Time (cdt) Wind (kph) Vis. (km) Weather Sky Cond. Air Dwpt Max. Min. Relative Humidity Wind Chill (°C) Heat Index (°C) altimeter (cm) sea level (mb) 1 hr 3 hr 6 hr
6 hour
Temperature (ºC) Pressure Precipitation (cm)